| time (UTC) | temp C | wind direction | speed KPH | gust KPH | rain 1hr cm | rain 24hr cm | rain mn cm | humidity % | barometer mb |
| 20260510011658 | 16 | 133 | 3.2 | 3.2 | 0.00 | 0.00 | 0.00 | 80 | 1003.9 |
| 20260510011154 | 16 | 186 | 1.6 | 3.2 | 0.00 | 0.00 | 0.00 | 79 | 1003.8 |
| 20260510010650 | 16 | 167 | 0.0 | 3.2 | 0.00 | 0.00 | 0.00 | 77 | 1003.8 |
| 20260510010148 | 17 | 64 | 0.0 | 1.6 | 0.00 | 0.00 | 0.00 | 74 | 1003.8 |
| 20260510005643 | 17 | 271 | 3.2 | 6.4 | 0.00 | 0.00 | 0.00 | 73 | 1003.5 |
| 20260510005140 | 17 | 293 | 4.8 | 8.0 | 0.00 | 0.00 | 0.00 | 73 | 1003.2 |
| 20260510004639 | 17 | 284 | 4.8 | 6.4 | 0.00 | 0.00 | 0.00 | 73 | 1003.3 |
| 20260510004137 | 17 | 269 | 0.0 | 3.2 | 0.00 | 0.00 | 0.00 | 73 | 1003.1 |
| 20260510003633 | 18 | 20 | 0.0 | 3.2 | 0.00 | 0.00 | 0.00 | 70 | 1003.0 |
| 20260510003129 | 18 | 317 | 4.8 | 4.8 | 0.00 | 0.00 | 0.00 | 69 | 1003.0 |
| 20260510002629 | 18 | 281 | 4.8 | 6.4 | 0.00 | 0.00 | 0.00 | 68 | 1003.1 |
| 20260510002126 | 18 | 319 | 3.2 | 4.8 | 0.00 | 0.00 | 0.00 | 67 | 1003.2 |
| 20260510001623 | 19 | 330 | 3.2 | 3.2 | 0.00 | 0.00 | 0.00 | 66 | 1003.0 |
| 20260510001122 | 19 | 309 | 4.8 | 4.8 | 0.00 | 0.00 | 0.00 | 66 | 1003.0 |
| 20260510000622 | 19 | 294 | 3.2 | 6.4 | 0.00 | 0.00 | 0.00 | 65 | 1003.0 |
| 20260510000120 | 20 | 293 | 4.8 | 6.4 | 0.00 | 0.00 | 0.00 | 64 | 1003.0 |
| 20260509235616 | 20 | 304 | 3.2 | 4.8 | 0.00 | 0.00 | 0.00 | 62 | 1002.9 |
| 20260509235113 | 21 | 272 | 3.2 | 4.8 | 0.00 | 0.00 | 0.00 | 60 | 1003.0 |
| 20260509234608 | 21 | 282 | 3.2 | 4.8 | 0.00 | 0.00 | 0.00 | 59 | 1003.0 |
| 20260509234107 | 21 | 336 | 1.6 | 3.2 | 0.00 | 0.00 | 0.00 | 57 | 1002.8 |
| 20260509233604 | 21 | 331 | 3.2 | 4.8 | 0.00 | 0.00 | 0.00 | 55 | 1002.9 |
| 20260509233101 | 22 | 305 | 1.6 | 3.2 | 0.00 | 0.00 | 0.00 | 55 | 1002.9 |
| 20260509232557 | 22 | 316 | 0.0 | 4.8 | 0.00 | 0.00 | 0.00 | 54 | 1002.8 |
| 20260509232054 | 22 | 293 | 3.2 | 4.8 | 0.00 | 0.00 | 0.00 | 54 | 1002.7 |
| 20260509231550 | 22 | 333 | 3.2 | 4.8 | 0.00 | 0.00 | 0.00 | 53 | 1002.7 |
| 20260509231048 | 23 | 289 | 1.6 | 3.2 | 0.00 | 0.00 | 0.00 | 51 | 1002.7 |
| 20260509230545 | 22 | 33 | 0.0 | 3.2 | 0.00 | 0.00 | 0.00 | 52 | 1002.6 |
| 20260509230042 | 22 | 310 | 3.2 | 4.8 | 0.00 | 0.00 | 0.00 | 54 | 1002.8 |
| 20260509225537 | 22 | 344 | 3.2 | 6.4 | 0.00 | 0.00 | 0.00 | 51 | 1002.7 |
| 20260509225033 | 23 | 330 | 0.0 | 1.6 | 0.00 | 0.00 | 0.00 | 48 | 1002.6 |
| 20260509224529 | 23 | 313 | 3.2 | 3.2 | 0.00 | 0.00 | 0.00 | 49 | 1002.6 |
| 20260509224026 | 25 | 42 | 1.6 | 1.6 | 0.00 | 0.00 | 0.00 | 45 | 1002.8 |
| 20260509223523 | 25 | 159 | 3.2 | 3.2 | 0.00 | 0.00 | 0.00 | 45 | 1002.8 |
| 20260509223021 | 25 | 166 | 1.6 | 3.2 | 0.00 | 0.00 | 0.00 | 45 | 1002.8 |
| 20260509222516 | 25 | 284 | 0.0 | 0.0 | 0.00 | 0.00 | 0.00 | 45 | 1002.7 |
| 20260509222012 | 24 | 284 | 0.0 | 1.6 | 0.00 | 0.00 | 0.00 | 46 | 1002.7 |
| 20260509221508 | 23 | 36 | 3.2 | 3.2 | 0.00 | 0.00 | 0.00 | 48 | 1002.8 |
| 20260509221004 | 23 | 345 | 0.0 | 1.6 | 0.00 | 0.00 | 0.00 | 49 | 1002.8 |
| 20260509220500 | 22 | 32 | 0.0 | 1.6 | 0.00 | 0.00 | 0.00 | 53 | 1002.9 |
| 20260509215956 | 22 | 311 | 0.0 | 0.0 | 0.00 | 0.00 | 0.00 | 52 | 1002.7 |
| 20260509215452 | 22 | 55 | 0.0 | 1.6 | 0.00 | 0.00 | 0.00 | 52 | 1002.8 |
| 20260509214950 | 22 | 75 | 3.2 | 4.8 | 0.00 | 0.00 | 0.00 | 53 | 1002.9 |
| 20260509214447 | 22 | 110 | 0.0 | 6.4 | 0.00 | 0.00 | 0.00 | 53 | 1002.8 |
| 20260509213943 | 22 | 128 | 1.6 | 3.2 | 0.00 | 0.00 | 0.00 | 53 | 1003.0 |
| 20260509213439 | 22 | 131 | 4.8 | 9.7 | 0.00 | 0.00 | 0.00 | 55 | 1003.0 |
| 20260509212937 | 22 | 148 | 4.8 | 6.4 | 0.00 | 0.00 | 0.00 | 51 | 1002.6 |
| 20260509212434 | 22 | 149 | 4.8 | 8.0 | 0.00 | 0.00 | 0.00 | 52 | 1002.7 |
| 20260509211930 | 22 | 167 | 6.4 | 8.0 | 0.00 | 0.00 | 0.00 | 51 | 1002.7 |
| 20260509211426 | 22 | 129 | 9.7 | 12.9 | 0.00 | 0.00 | 0.00 | 53 | 1002.7 |
| 20260509210923 | 22 | 135 | 6.4 | 9.7 | 0.00 | 0.00 | 0.00 | 52 | 1002.7 |
| 20260509210420 | 21 | 143 | 0.0 | 6.4 | 0.00 | 0.00 | 0.00 | 55 | 1002.3 |
| 20260509205915 | 21 | 156 | 8.0 | 14.5 | 0.00 | 0.00 | 0.00 | 54 | 1002.5 |
| 20260509205415 | 21 | 150 | 14.5 | 22.5 | 0.00 | 0.00 | 0.00 | 52 | 1002.8 |
| 20260509204911 | 21 | 199 | 3.2 | 8.0 | 0.00 | 0.00 | 0.00 | 52 | 1002.5 |
| 20260509204408 | 22 | 132 | 9.7 | 14.5 | 0.00 | 0.00 | 0.00 | 55 | 1002.5 |
| 20260509203904 | 22 | 137 | 4.8 | 9.7 | 0.00 | 0.00 | 0.00 | 54 | 1002.7 |
| 20260509203400 | 22 | 46 | 3.2 | 6.4 | 0.00 | 0.00 | 0.00 | 53 | 1002.3 |
| 20260509202858 | 22 | 115 | 4.8 | 12.9 | 0.00 | 0.00 | 0.00 | 53 | 1002.2 |
| 20260509202353 | 23 | 65 | 3.2 | 6.4 | 0.00 | 0.00 | 0.00 | 51 | 1002.3 |
| 20260509201849 | 22 | 125 | 3.2 | 9.7 | 0.00 | 0.00 | 0.00 | 51 | 1002.5 |
| 20260509201344 | 22 | 85 | 1.6 | 9.7 | 0.00 | 0.00 | 0.00 | 54 | 1002.3 |
| 20260509200841 | 21 | 126 | 6.4 | 11.3 | 0.00 | 0.00 | 0.00 | 53 | 1002.6 |
| 20260509200336 | 21 | 196 | 12.9 | 14.5 | 0.00 | 0.00 | 0.00 | 54 | 1002.5 |
| 20260509195833 | 21 | 191 | 4.8 | 17.7 | 0.00 | 0.00 | 0.00 | 55 | 1002.7 |
| 20260509195333 | 22 | 126 | 9.7 | 20.9 | 0.00 | 0.00 | 0.00 | 54 | 1002.8 |
| 20260509194833 | 22 | 141 | 4.8 | 9.7 | 0.00 | 0.00 | 0.00 | 56 | 1002.8 |
| 20260509194330 | 22 | 52 | 12.9 | 14.5 | 0.00 | 0.00 | 0.00 | 53 | 1002.6 |
| 20260509193827 | 21 | 126 | 3.2 | 12.9 | 0.00 | 0.00 | 0.00 | 50 | 1002.9 |
| 20260509193327 | 21 | 197 | 11.3 | 20.9 | 0.00 | 0.00 | 0.00 | 54 | 1002.9 |
| 20260509192823 | 21 | 139 | 14.5 | 22.5 | 0.00 | 0.00 | 0.00 | 53 | 1003.0 |
| 20260509192319 | 22 | 125 | 4.8 | 20.9 | 0.00 | 0.00 | 0.00 | 51 | 1003.0 |
| 20260509191814 | 22 | 188 | 11.3 | 19.3 | 0.00 | 0.00 | 0.00 | 54 | 1002.9 |
| 20260509191310 | 22 | 143 | 16.1 | 17.7 | 0.00 | 0.00 | 0.00 | 53 | 1003.1 |
| 20260509190806 | 21 | 123 | 9.7 | 19.3 | 0.00 | 0.00 | 0.00 | 57 | 1003.3 |
| 20260509190304 | 21 | 164 | 17.7 | 19.3 | 0.00 | 0.00 | 0.00 | 55 | 1003.5 |
| 20260509185801 | 22 | 146 | 19.3 | 24.1 | 0.00 | 0.00 | 0.00 | 55 | 1003.5 |
| 20260509185257 | 22 | 148 | 16.1 | 16.1 | 0.00 | 0.00 | 0.00 | 54 | 1003.3 |
| 20260509184755 | 21 | 107 | 9.7 | 17.7 | 0.00 | 0.00 | 0.00 | 58 | 1003.7 |
| 20260509184252 | 21 | 61 | 11.3 | 12.9 | 0.00 | 0.00 | 0.00 | 58 | 1003.6 |
| 20260509183748 | 21 | 67 | 8.0 | 14.5 | 0.00 | 0.00 | 0.00 | 59 | 1003.6 |
| 20260509183244 | 21 | 149 | 6.4 | 12.9 | 0.00 | 0.00 | 0.00 | 54 | 1003.8 |
| 20260509182739 | 21 | 139 | 6.4 | 9.7 | 0.00 | 0.00 | 0.00 | 57 | 1004.0 |
| 20260509182237 | 20 | 6 | 4.8 | 16.1 | 0.00 | 0.00 | 0.00 | 58 | 1004.2 |
| 20260509181734 | 20 | 46 | 3.2 | 6.4 | 0.00 | 0.00 | 0.00 | 58 | 1003.9 |
| 20260509181232 | 20 | 134 | 4.8 | 12.9 | 0.00 | 0.00 | 0.00 | 58 | 1004.1 |
| 20260509180729 | 20 | 135 | 4.8 | 19.3 | 0.00 | 0.00 | 0.00 | 58 | 1003.9 |
| 20260509180225 | 20 | 56 | 4.8 | 8.0 | 0.00 | 0.00 | 0.00 | 60 | 1003.9 |
| 20260509175721 | 19 | 71 | 3.2 | 8.0 | 0.00 | 0.00 | 0.00 | 61 | 1003.9 |
| 20260509175218 | 19 | 37 | 6.4 | 8.0 | 0.00 | 0.00 | 0.00 | 59 | 1004.1 |
| 20260509174714 | 19 | 135 | 4.8 | 6.4 | 0.00 | 0.00 | 0.00 | 62 | 1004.1 |
| 20260509174209 | 20 | 34 | 3.2 | 6.4 | 0.00 | 0.00 | 0.00 | 57 | 1004.6 |
| 20260509173705 | 20 | 170 | 3.2 | 3.2 | 0.00 | 0.00 | 0.00 | 59 | 1004.8 |
| 20260509173201 | 20 | 150 | 4.8 | 4.8 | 0.00 | 0.00 | 0.00 | 56 | 1004.7 |
| 20260509172657 | 19 | 153 | 1.6 | 4.8 | 0.00 | 0.00 | 0.00 | 56 | 1004.7 |
| 20260509172154 | 18 | 186 | 0.0 | 6.4 | 0.00 | 0.00 | 0.00 | 59 | 1004.9 |
| 20260509171649 | 18 | 217 | 6.4 | 9.7 | 0.00 | 0.00 | 0.00 | 59 | 1004.9 |
| 20260509171146 | 18 | 230 | 3.2 | 8.0 | 0.00 | 0.00 | 0.00 | 59 | 1004.9 |
| 20260509170643 | 18 | 253 | 3.2 | 8.0 | 0.00 | 0.00 | 0.00 | 59 | 1004.9 |
| 20260509170139 | 18 | 220 | 3.2 | 4.8 | 0.00 | 0.00 | 0.00 | 59 | 1004.9 |
| 20260509165637 | 18 | 227 | 8.0 | 9.7 | 0.00 | 0.00 | 0.00 | 58 | 1004.9 |
| 20260509165133 | 19 | 120 | 3.2 | 6.4 | 0.00 | 0.00 | 0.00 | 56 | 1004.9 |
| 20260509164629 | 18 | 168 | 4.8 | 16.1 | 0.00 | 0.00 | 0.00 | 60 | 1004.9 |
| 20260509164125 | 18 | 176 | 4.8 | 8.0 | 0.00 | 0.00 | 0.00 | 57 | 1005.1 |
| 20260509163623 | 18 | 153 | 6.4 | 9.7 | 0.00 | 0.00 | 0.00 | 61 | 1005.2 |
| 20260509163118 | 18 | 120 | 8.0 | 8.0 | 0.00 | 0.00 | 0.00 | 60 | 1005.2 |
| 20260509162616 | 18 | 141 | 8.0 | 17.7 | 0.00 | 0.00 | 0.00 | 63 | 1005.0 |
| 20260509162112 | 18 | 132 | 17.7 | 24.1 | 0.00 | 0.00 | 0.00 | 58 | 1005.2 |
| 20260509161608 | 18 | 130 | 11.3 | 19.3 | 0.00 | 0.00 | 0.00 | 60 | 1004.9 |
| 20260509161108 | 19 | 133 | 4.8 | 6.4 | 0.00 | 0.00 | 0.00 | 60 | 1005.2 |
| 20260509160605 | 19 | 60 | 9.7 | 9.7 | 0.00 | 0.00 | 0.00 | 61 | 1005.1 |
| 20260509160059 | 18 | 129 | 6.4 | 12.9 | 0.00 | 0.00 | 0.00 | 62 | 1005.2 |
| 20260509155556 | 18 | 69 | 6.4 | 12.9 | 0.00 | 0.00 | 0.00 | 62 | 1005.1 |
| 20260509155053 | 18 | 133 | 6.4 | 8.0 | 0.00 | 0.00 | 0.00 | 58 | 1005.1 |
| 20260509154549 | 17 | 357 | 3.2 | 8.0 | 0.00 | 0.00 | 0.00 | 59 | 1004.8 |
| 20260509154046 | 17 | 34 | 8.0 | 17.7 | 0.00 | 0.00 | 0.00 | 60 | 1005.2 |
| 20260509153543 | 19 | 116 | 8.0 | 11.3 | 0.00 | 0.00 | 0.00 | 58 | 1004.9 |
| 20260509153040 | 18 | 68 | 9.7 | 14.5 | 0.00 | 0.00 | 0.00 | 60 | 1004.9 |
| 20260509152536 | 20 | 41 | 8.0 | 9.7 | 0.00 | 0.00 | 0.00 | 57 | 1004.8 |
| 20260509152033 | 19 | 163 | 8.0 | 8.0 | 0.00 | 0.00 | 0.00 | 55 | 1004.9 |
| 20260509151529 | 18 | 214 | 3.2 | 8.0 | 0.00 | 0.00 | 0.00 | 58 | 1004.9 |
| 20260509151027 | 18 | 138 | 9.7 | 19.3 | 0.00 | 0.00 | 0.00 | 61 | 1005.2 |
| 20260509150524 | 17 | 204 | 3.2 | 8.0 | 0.00 | 0.00 | 0.00 | 58 | 1005.0 |
| 20260509150023 | 18 | 175 | 6.4 | 8.0 | 0.00 | 0.00 | 0.00 | 58 | 1005.1 |
| 20260509145518 | 18 | 146 | 4.8 | 8.0 | 0.00 | 0.00 | 0.00 | 62 | 1005.4 |
| 20260509145013 | 17 | 172 | 1.6 | 4.8 | 0.00 | 0.00 | 0.00 | 58 | 1005.3 |
| 20260509144511 | 16 | 147 | 4.8 | 9.7 | 0.00 | 0.00 | 0.00 | 60 | 1005.2 |
| 20260509144008 | 16 | 147 | 4.8 | 8.0 | 0.00 | 0.00 | 0.00 | 59 | 1005.3 |
| 20260509143505 | 16 | 175 | 4.8 | 6.4 | 0.00 | 0.00 | 0.00 | 63 | 1005.4 |
| 20260509143002 | 17 | 120 | 4.8 | 12.9 | 0.00 | 0.00 | 0.00 | 61 | 1005.5 |
| 20260509142458 | 17 | 226 | 4.8 | 6.4 | 0.00 | 0.00 | 0.00 | 58 | 1005.5 |
| 20260509141953 | 16 | 110 | 3.2 | 9.7 | 0.00 | 0.00 | 0.00 | 64 | 1005.4 |
| 20260509141450 | 16 | 67 | 6.4 | 14.5 | 0.00 | 0.00 | 0.00 | 65 | 1005.7 |
| 20260509140947 | 15 | 40 | 0.0 | 6.4 | 0.00 | 0.00 | 0.00 | 62 | 1005.6 |
| 20260509140443 | 15 | 61 | 0.0 | 6.4 | 0.00 | 0.00 | 0.00 | 63 | 1005.7 |
| 20260509135942 | 15 | 54 | 6.4 | 8.0 | 0.00 | 0.00 | 0.00 | 63 | 1006.0 |
| 20260509135439 | 15 | 131 | 3.2 | 6.4 | 0.00 | 0.00 | 0.00 | 66 | 1006.0 |
| 20260509134936 | 15 | 126 | 4.8 | 6.4 | 0.00 | 0.00 | 0.00 | 68 | 1006.0 |
| 20260509134433 | 14 | 145 | 4.8 | 11.3 | 0.00 | 0.00 | 0.00 | 68 | 1005.9 |
| 20260509133931 | 14 | 155 | 3.2 | 6.4 | 0.00 | 0.00 | 0.00 | 68 | 1005.6 |
| 20260509133427 | 14 | 62 | 3.2 | 14.5 | 0.00 | 0.00 | 0.00 | 67 | 1005.7 |
| 20260509132926 | 13 | 136 | 8.0 | 9.7 | 0.00 | 0.00 | 0.00 | 68 | 1005.8 |
| 20260509132423 | 13 | 103 | 3.2 | 3.2 | 0.00 | 0.00 | 0.00 | 71 | 1005.8 |
| 20260509131920 | 13 | 121 | 4.8 | 6.4 | 0.00 | 0.00 | 0.00 | 69 | 1005.6 |
| 20260509131417 | 12 | 153 | 3.2 | 6.4 | 0.00 | 0.00 | 0.00 | 71 | 1005.8 |
| 20260509130914 | 12 | 82 | 3.2 | 6.4 | 0.00 | 0.00 | 0.00 | 71 | 1005.9 |
| 20260509130409 | 12 | 88 | 4.8 | 6.4 | 0.00 | 0.00 | 0.00 | 72 | 1005.7 |
| 20260509125906 | 12 | 76 | 3.2 | 9.7 | 0.00 | 0.00 | 0.00 | 71 | 1005.9 |
| 20260509125403 | 12 | 145 | 4.8 | 6.4 | 0.00 | 0.00 | 0.00 | 72 | 1005.9 |
| 20260509124859 | 12 | 106 | 4.8 | 6.4 | 0.00 | 0.00 | 0.00 | 74 | 1005.8 |
| 20260509124356 | 12 | 112 | 4.8 | 8.0 | 0.00 | 0.00 | 0.00 | 73 | 1005.9 |
| 20260509123854 | 12 | 124 | 4.8 | 4.8 | 0.00 | 0.00 | 0.00 | 71 | 1005.8 |
| 20260509123351 | 12 | 121 | 1.6 | 6.4 | 0.00 | 0.00 | 0.00 | 73 | 1005.8 |
| 20260509122847 | 12 | 163 | 4.8 | 4.8 | 0.00 | 0.00 | 0.00 | 72 | 1005.9 |
| 20260509122344 | 12 | 153 | 3.2 | 8.0 | 0.00 | 0.00 | 0.00 | 72 | 1005.9 |
| 20260509121840 | 12 | 127 | 4.8 | 6.4 | 0.00 | 0.00 | 0.00 | 72 | 1005.8 |
| 20260509121337 | 12 | 119 | 3.2 | 6.4 | 0.00 | 0.00 | 0.00 | 71 | 1005.9 |
| 20260509120836 | 12 | 77 | 1.6 | 6.4 | 0.00 | 0.00 | 0.00 | 72 | 1005.8 |
| 20260509120333 | 12 | 77 | 0.0 | 4.8 | 0.00 | 0.00 | 0.00 | 73 | 1005.8 |
| 20260509115831 | 12 | 73 | 3.2 | 4.8 | 0.00 | 0.00 | 0.00 | 74 | 1005.7 |
| 20260509115328 | 11 | 92 | 3.2 | 6.4 | 0.00 | 0.00 | 0.00 | 74 | 1005.6 |
| 20260509114826 | 11 | 116 | 3.2 | 6.4 | 0.00 | 0.00 | 0.00 | 74 | 1006.0 |
| 20260509114324 | 11 | 102 | 3.2 | 3.2 | 0.00 | 0.00 | 0.00 | 76 | 1005.5 |
| 20260509113823 | 11 | 72 | 4.8 | 6.4 | 0.00 | 0.00 | 0.00 | 76 | 1005.6 |
| 20260509113320 | 11 | 65 | 3.2 | 4.8 | 0.00 | 0.00 | 0.00 | 76 | 1005.7 |
| 20260509112816 | 11 | 57 | 6.4 | 6.4 | 0.00 | 0.00 | 0.00 | 78 | 1005.6 |
| 20260509112314 | 11 | 70 | 6.4 | 8.0 | 0.00 | 0.00 | 0.00 | 77 | 1005.6 |
| 20260509111811 | 10 | 30 | 4.8 | 4.8 | 0.00 | 0.00 | 0.00 | 79 | 1005.3 |
| 20260509111308 | 10 | 0 | 0.0 | 3.2 | 0.00 | 0.00 | 0.00 | 82 | 1005.3 |
| 20260509110805 | 10 | 34 | 3.2 | 4.8 | 0.00 | 0.00 | 0.00 | 83 | 1005.2 |
| 20260509110301 | 11 | 42 | 4.8 | 6.4 | 0.00 | 0.00 | 0.00 | 80 | 1005.4 |
| 20260509105759 | 10 | 353 | 0.0 | 4.8 | 0.00 | 0.00 | 0.00 | 79 | 1005.4 |
| 20260509105257 | 10 | 38 | 3.2 | 4.8 | 0.00 | 0.00 | 0.00 | 79 | 1005.3 |
| 20260509104753 | 10 | 41 | 3.2 | 3.2 | 0.00 | 0.00 | 0.00 | 80 | 1005.3 |
| 20260509104250 | 11 | 85 | 1.6 | 3.2 | 0.00 | 0.00 | 0.00 | 80 | 1005.3 |
| 20260509103749 | 11 | 328 | 0.0 | 3.2 | 0.00 | 0.00 | 0.00 | 77 | 1005.1 |
| 20260509103245 | 11 | 10 | 0.0 | 3.2 | 0.00 | 0.00 | 0.00 | 77 | 1005.2 |
| 20260509102744 | 11 | 20 | 1.6 | 3.2 | 0.00 | 0.00 | 0.00 | 73 | 1005.3 |
| 20260509102241 | 11 | 235 | 3.2 | 3.2 | 0.00 | 0.00 | 0.00 | 74 | 1005.4 |
| 20260509101737 | 11 | 117 | 1.6 | 3.2 | 0.00 | 0.00 | 0.00 | 72 | 1005.4 |
| 20260509101233 | 11 | 143 | 1.6 | 3.2 | 0.00 | 0.00 | 0.00 | 71 | 1005.5 |
| 20260509100731 | 11 | 107 | 1.6 | 3.2 | 0.00 | 0.00 | 0.00 | 69 | 1005.4 |
| 20260509100228 | 11 | 113 | 0.0 | 1.6 | 0.00 | 0.00 | 0.00 | 70 | 1005.4 |
| 20260509095724 | 11 | 205 | 0.0 | 1.6 | 0.00 | 0.00 | 0.00 | 69 | 1005.5 |
| 20260509095222 | 11 | 293 | 3.2 | 4.8 | 0.00 | 0.00 | 0.00 | 69 | 1005.7 |
| 20260509094719 | 11 | 208 | 3.2 | 3.2 | 0.00 | 0.00 | 0.00 | 72 | 1005.5 |
| 20260509094215 | 11 | 46 | 0.0 | 3.2 | 0.00 | 0.00 | 0.00 | 73 | 1005.6 |
| 20260509093714 | 11 | 147 | 0.0 | 3.2 | 0.00 | 0.00 | 0.00 | 70 | 1005.4 |
| 20260509093210 | 11 | 89 | 0.0 | 1.6 | 0.00 | 0.00 | 0.00 | 72 | 1005.4 |
| 20260509092709 | 11 | 118 | 3.2 | 3.2 | 0.00 | 0.00 | 0.00 | 70 | 1005.6 |
| 20260509092207 | 11 | 91 | 0.0 | 4.8 | 0.00 | 0.00 | 0.00 | 69 | 1005.5 |
| 20260509091705 | 11 | 92 | 3.2 | 3.2 | 0.00 | 0.00 | 0.00 | 69 | 1005.5 |
| 20260509091200 | 11 | 214 | 1.6 | 3.2 | 0.00 | 0.00 | 0.00 | 68 | 1005.4 |
| 20260509090658 | 11 | 30 | 0.0 | 3.2 | 0.00 | 0.00 | 0.00 | 69 | 1005.4 |
| 20260509090155 | 11 | 86 | 3.2 | 3.2 | 0.00 | 0.00 | 0.00 | 69 | 1005.5 |
| 20260509085653 | 11 | 203 | 0.0 | 3.2 | 0.00 | 0.00 | 0.00 | 69 | 1005.6 |
| 20260509085149 | 11 | 345 | 0.0 | 1.6 | 0.00 | 0.00 | 0.00 | 69 | 1005.6 |
| 20260509084646 | 11 | 48 | 1.6 | 3.2 | 0.00 | 0.00 | 0.00 | 70 | 1005.5 |
| 20260509084143 | 11 | 4 | 3.2 | 3.2 | 0.00 | 0.00 | 0.00 | 70 | 1005.8 |
| 20260509083641 | 11 | 290 | 3.2 | 4.8 | 0.00 | 0.00 | 0.00 | 69 | 1005.6 |
| 20260509083137 | 11 | 339 | 3.2 | 4.8 | 0.00 | 0.00 | 0.00 | 73 | 1005.5 |
| 20260509082634 | 11 | 350 | 3.2 | 4.8 | 0.00 | 0.00 | 0.00 | 73 | 1005.8 |
| 20260509082131 | 10 | 11 | 4.8 | 4.8 | 0.00 | 0.00 | 0.00 | 76 | 1005.8 |
| 20260509081628 | 10 | 11 | 3.2 | 4.8 | 0.00 | 0.00 | 0.00 | 75 | 1005.7 |
| 20260509081125 | 10 | 322 | 3.2 | 3.2 | 0.00 | 0.00 | 0.00 | 76 | 1005.7 |
| 20260509080623 | 10 | 13 | 1.6 | 4.8 | 0.00 | 0.00 | 0.00 | 76 | 1005.6 |
| 20260509080121 | 10 | 17 | 3.2 | 4.8 | 0.00 | 0.00 | 0.00 | 77 | 1005.7 |
| 20260509075618 | 10 | 11 | 3.2 | 4.8 | 0.00 | 0.00 | 0.00 | 77 | 1005.8 |
| 20260509075116 | 10 | 75 | 1.6 | 6.4 | 0.00 | 0.00 | 0.00 | 81 | 1006.0 |
| 20260509074613 | 10 | 52 | 3.2 | 6.4 | 0.00 | 0.00 | 0.00 | 76 | 1006.0 |
| 20260509074109 | 10 | 28 | 3.2 | 4.8 | 0.00 | 0.00 | 0.00 | 76 | 1005.9 |
| 20260509073606 | 10 | 53 | 3.2 | 6.4 | 0.00 | 0.00 | 0.00 | 76 | 1005.9 |
| 20260509073102 | 10 | 351 | 0.0 | 4.8 | 0.00 | 0.00 | 0.00 | 77 | 1005.9 |
| 20260509072559 | 11 | 48 | 3.2 | 6.4 | 0.00 | 0.00 | 0.00 | 73 | 1006.0 |
| 20260509072056 | 11 | 301 | 6.4 | 8.0 | 0.00 | 0.00 | 0.00 | 71 | 1005.9 |
| 20260509071553 | 10 | 349 | 0.0 | 3.2 | 0.00 | 0.00 | 0.00 | 73 | 1006.1 |
| 20260509071050 | 10 | 229 | 1.6 | 3.2 | 0.00 | 0.00 | 0.00 | 77 | 1005.8 |
| 20260509070547 | 10 | 62 | 0.0 | 3.2 | 0.00 | 0.00 | 0.00 | 76 | 1005.8 |
| 20260509070043 | 10 | 348 | 0.0 | 3.2 | 0.00 | 0.00 | 0.00 | 77 | 1005.9 |
| 20260509065539 | 10 | 65 | 0.0 | 3.2 | 0.00 | 0.00 | 0.00 | 78 | 1006.0 |
| 20260509065035 | 10 | 37 | 3.2 | 4.8 | 0.00 | 0.00 | 0.00 | 78 | 1005.9 |
| 20260509064533 | 9 | 69 | 3.2 | 6.4 | 0.00 | 0.00 | 0.00 | 82 | 1005.8 |
| 20260509064031 | 10 | 62 | 3.2 | 4.8 | 0.00 | 0.00 | 0.00 | 77 | 1006.1 |
| 20260509063526 | 10 | 93 | 1.6 | 3.2 | 0.00 | 0.00 | 0.00 | 76 | 1006.1 |
| 20260509063024 | 10 | 0 | 1.6 | 3.2 | 0.00 | 0.00 | 0.00 | 73 | 1006.1 |
| 20260509062520 | 10 | 12 | 3.2 | 3.2 | 0.00 | 0.00 | 0.00 | 73 | 1006.2 |
| 20260509062018 | 10 | 10 | 1.6 | 3.2 | 0.00 | 0.00 | 0.00 | 74 | 1006.2 |
| 20260509061515 | 10 | 40 | 3.2 | 4.8 | 0.00 | 0.00 | 0.00 | 74 | 1006.1 |
| 20260509061012 | 10 | 25 | 1.6 | 3.2 | 0.00 | 0.00 | 0.00 | 75 | 1006.1 |
| 20260509060509 | 10 | 52 | 1.6 | 3.2 | 0.00 | 0.00 | 0.00 | 76 | 1006.3 |
| 20260509060005 | 10 | 52 | 3.2 | 3.2 | 0.00 | 0.00 | 0.00 | 78 | 1006.4 |
| 20260509055500 | 10 | 78 | 1.6 | 4.8 | 0.00 | 0.00 | 0.00 | 78 | 1006.4 |
| 20260509054957 | 10 | 71 | 4.8 | 6.4 | 0.00 | 0.00 | 0.00 | 78 | 1006.5 |
| 20260509054454 | 10 | 53 | 3.2 | 3.2 | 0.00 | 0.00 | 0.00 | 75 | 1006.3 |
| 20260509053952 | 11 | 45 | 3.2 | 6.4 | 0.00 | 0.00 | 0.00 | 73 | 1006.5 |
| 20260509053450 | 11 | 29 | 4.8 | 4.8 | 0.00 | 0.00 | 0.00 | 72 | 1006.5 |
| 20260509052947 | 11 | 24 | 1.6 | 4.8 | 0.00 | 0.00 | 0.00 | 72 | 1006.3 |
| 20260509052444 | 11 | 344 | 0.0 | 3.2 | 0.00 | 0.00 | 0.00 | 73 | 1006.6 |
| 20260509051942 | 11 | 54 | 1.6 | 3.2 | 0.00 | 0.00 | 0.00 | 73 | 1006.6 |
| 20260509051440 | 11 | 18 | 1.6 | 4.8 | 0.00 | 0.00 | 0.00 | 72 | 1006.6 |
| 20260509050937 | 11 | 4 | 3.2 | 3.2 | 0.00 | 0.00 | 0.00 | 70 | 1006.6 |
| 20260509050433 | 11 | 53 | 3.2 | 4.8 | 0.00 | 0.00 | 0.00 | 68 | 1006.5 |
| 20260509045930 | 11 | 233 | 0.0 | 3.2 | 0.00 | 0.00 | 0.00 | 68 | 1006.5 |
| 20260509045427 | 11 | 356 | 3.2 | 3.2 | 0.00 | 0.00 | 0.00 | 69 | 1006.6 |
| 20260509044924 | 12 | 326 | 3.2 | 4.8 | 0.00 | 0.00 | 0.00 | 65 | 1006.7 |
| 20260509044422 | 11 | 357 | 0.0 | 3.2 | 0.00 | 0.00 | 0.00 | 68 | 1006.4 |
| 20260509043919 | 12 | 354 | 3.2 | 4.8 | 0.00 | 0.00 | 0.00 | 64 | 1006.5 |
| 20260509043414 | 12 | 294 | 1.6 | 3.2 | 0.00 | 0.00 | 0.00 | 64 | 1006.4 |
| 20260509042910 | 12 | 20 | 3.2 | 4.8 | 0.00 | 0.00 | 0.00 | 66 | 1006.4 |
| 20260509042407 | 12 | 358 | 3.2 | 4.8 | 0.00 | 0.00 | 0.00 | 65 | 1006.4 |
| 20260509041903 | 12 | 10 | 3.2 | 3.2 | 0.00 | 0.00 | 0.00 | 65 | 1006.4 |
| 20260509041401 | 12 | 357 | 1.6 | 4.8 | 0.00 | 0.00 | 0.00 | 64 | 1006.3 |
| 20260509040859 | 12 | 290 | 3.2 | 4.8 | 0.00 | 0.00 | 0.00 | 67 | 1006.5 |
| 20260509040356 | 11 | 359 | 3.2 | 4.8 | 0.00 | 0.00 | 0.00 | 69 | 1006.4 |
| 20260509035853 | 12 | 36 | 4.8 | 6.4 | 0.00 | 0.00 | 0.00 | 67 | 1006.4 |
| 20260509035350 | 12 | 347 | 0.0 | 3.2 | 0.00 | 0.00 | 0.00 | 64 | 1006.6 |
| 20260509034846 | 12 | 28 | 0.0 | 3.2 | 0.00 | 0.00 | 0.00 | 63 | 1006.5 |
| 20260509034344 | 12 | 13 | 0.0 | 3.2 | 0.00 | 0.00 | 0.00 | 61 | 1006.5 |
| 20260509033840 | 12 | 65 | 1.6 | 3.2 | 0.00 | 0.00 | 0.00 | 59 | 1006.5 |
| 20260509033338 | 13 | 102 | 3.2 | 8.0 | 0.00 | 0.00 | 0.00 | 58 | 1006.4 |
| 20260509032835 | 13 | 152 | 3.2 | 3.2 | 0.00 | 0.00 | 0.00 | 59 | 1006.4 |
| 20260509032332 | 13 | 136 | 3.2 | 4.8 | 0.00 | 0.00 | 0.00 | 58 | 1006.4 |
| 20260509031830 | 13 | 141 | 3.2 | 6.4 | 0.00 | 0.00 | 0.00 | 58 | 1006.8 |
| 20260509031327 | 13 | 134 | 4.8 | 6.4 | 0.00 | 0.00 | 0.00 | 58 | 1006.5 |
| 20260509030824 | 13 | 133 | 3.2 | 3.2 | 0.00 | 0.00 | 0.00 | 58 | 1006.8 |
| 20260509030322 | 13 | 80 | 1.6 | 4.8 | 0.00 | 0.00 | 0.00 | 58 | 1006.7 |
| 20260509025818 | 13 | 358 | 1.6 | 4.8 | 0.00 | 0.00 | 0.00 | 58 | 1006.7 |
| 20260509025314 | 13 | 121 | 1.6 | 4.8 | 0.00 | 0.00 | 0.00 | 58 | 1006.6 |
| 20260509024810 | 13 | 78 | 3.2 | 6.4 | 0.00 | 0.00 | 0.00 | 58 | 1006.7 |
| 20260509024306 | 13 | 42 | 6.4 | 6.4 | 0.00 | 0.00 | 0.00 | 57 | 1006.9 |
| 20260509023803 | 13 | 70 | 3.2 | 6.4 | 0.00 | 0.00 | 0.00 | 57 | 1006.9 |
| 20260509023301 | 13 | 31 | 4.8 | 4.8 | 0.00 | 0.00 | 0.00 | 57 | 1006.9 |
| 20260509022756 | 13 | 52 | 3.2 | 4.8 | 0.00 | 0.00 | 0.00 | 58 | 1006.9 |
| 20260509022254 | 13 | 0 | 4.8 | 4.8 | 0.00 | 0.00 | 0.00 | 59 | 1006.9 |
| 20260509021751 | 13 | 12 | 3.2 | 4.8 | 0.00 | 0.00 | 0.00 | 60 | 1006.7 |
| 20260509021248 | 13 | 50 | 3.2 | 4.8 | 0.00 | 0.00 | 0.00 | 60 | 1006.7 |
| 20260509020746 | 13 | 31 | 3.2 | 3.2 | 0.00 | 0.00 | 0.00 | 59 | 1006.7 |
| 20260509020243 | 13 | 19 | 0.0 | 3.2 | 0.00 | 0.00 | 0.00 | 59 | 1006.5 |
| 20260509015741 | 13 | 9 | 3.2 | 4.8 | 0.00 | 0.00 | 0.00 | 59 | 1006.7 |
| 20260509015239 | 13 | 0 | 4.8 | 4.8 | 0.00 | 0.00 | 0.00 | 58 | 1006.5 |
| 20260509014735 | 14 | 357 | 1.6 | 3.2 | 0.00 | 0.00 | 0.00 | 55 | 1006.7 |
| 20260509014232 | 15 | 10 | 1.6 | 1.6 | 0.00 | 0.00 | 0.00 | 52 | 1006.5 |
| 20260509013729 | 15 | 174 | 0.0 | 3.2 | 0.00 | 0.00 | 0.00 | 49 | 1006.5 |
| 20260509013224 | 16 | 107 | 3.2 | 4.8 | 0.00 | 0.00 | 0.00 | 48 | 1006.3 |
| 20260509012721 | 16 | 123 | 4.8 | 6.4 | 0.00 | 0.00 | 0.00 | 48 | 1006.4 |
| 20260509012218 | 16 | 107 | 3.2 | 3.2 | 0.00 | 0.00 | 0.00 | 48 | 1006.7 |